| time (UTC) | temp F | wind direction | speed MPH | gust MPH | rain 1hr in | rain 24hr in | rain mn in | humidity % | barometer mb |
| 20260505092550 | 70 | 182 | 4.0 | 7.0 | 0.00 | 0.00 | 0.00 | 92 | 1008.9 |
| 20260505092051 | 70 | 194 | 4.0 | 7.0 | 0.00 | 0.00 | 0.00 | 92 | 1009.0 |
| 20260505091600 | 70 | 192 | 4.0 | 7.0 | 0.00 | 0.00 | 0.00 | 92 | 1008.9 |
| 20260505091051 | 70 | 176 | 3.0 | 6.0 | 0.00 | 0.00 | 0.00 | 92 | 1008.9 |
| 20260505090552 | 70 | 189 | 2.0 | 6.0 | 0.00 | 0.00 | 0.00 | 92 | 1008.9 |
| 20260505090059 | 70 | 190 | 2.0 | 6.0 | 0.00 | 0.00 | 0.00 | 91 | 1008.9 |
| 20260505085552 | 70 | 178 | 3.0 | 6.0 | 0.00 | 0.00 | 0.00 | 91 | 1008.8 |
| 20260505085053 | 70 | 188 | 3.0 | 6.0 | 0.00 | 0.00 | 0.00 | 91 | 1008.9 |
| 20260505084553 | 70 | 194 | 3.0 | 7.0 | 0.00 | 0.00 | 0.00 | 91 | 1009.0 |
| 20260505084052 | 70 | 193 | 4.0 | 7.0 | 0.00 | 0.00 | 0.00 | 91 | 1009.0 |
| 20260505083551 | 70 | 182 | 4.0 | 7.0 | 0.00 | 0.00 | 0.00 | 91 | 1009.1 |
| 20260505083105 | 70 | 185 | 3.0 | 7.0 | 0.00 | 0.00 | 0.00 | 91 | 1009.1 |
| 20260505082555 | 70 | 190 | 3.0 | 9.0 | 0.00 | 0.00 | 0.00 | 91 | 1009.2 |
| 20260505082054 | 70 | 195 | 4.0 | 9.0 | 0.00 | 0.00 | 0.00 | 91 | 1009.3 |
| 20260505081557 | 70 | 196 | 5.0 | 10.0 | 0.00 | 0.00 | 0.00 | 91 | 1009.3 |
| 20260505081054 | 70 | 194 | 4.0 | 10.0 | 0.00 | 0.00 | 0.00 | 91 | 1009.4 |
| 20260505080553 | 70 | 203 | 4.0 | 11.0 | 0.00 | 0.00 | 0.00 | 91 | 1009.4 |
| 20260505080054 | 70 | 190 | 5.0 | 11.0 | 0.00 | 0.00 | 0.00 | 91 | 1009.6 |
| 20260505075552 | 70 | 183 | 6.0 | 10.0 | 0.00 | 0.00 | 0.00 | 91 | 1009.5 |
| 20260505075053 | 70 | 187 | 6.0 | 10.0 | 0.00 | 0.00 | 0.00 | 90 | 1009.6 |
| 20260505074554 | 70 | 196 | 6.0 | 9.0 | 0.00 | 0.00 | 0.00 | 90 | 1009.6 |
| 20260505074052 | 70 | 202 | 5.0 | 10.0 | 0.00 | 0.00 | 0.00 | 90 | 1009.7 |
| 20260505073556 | 71 | 184 | 4.0 | 10.0 | 0.00 | 0.00 | 0.00 | 90 | 1009.8 |
| 20260505073100 | 71 | 190 | 5.0 | 10.0 | 0.00 | 0.00 | 0.00 | 90 | 1009.7 |
| 20260505072551 | 71 | 206 | 6.0 | 10.0 | 0.00 | 0.00 | 0.00 | 90 | 1009.7 |
| 20260505072052 | 71 | 209 | 6.0 | 11.0 | 0.00 | 0.00 | 0.00 | 90 | 1009.7 |
| 20260505071553 | 71 | 200 | 7.0 | 12.0 | 0.00 | 0.00 | 0.00 | 90 | 1009.9 |
| 20260505071053 | 71 | 183 | 5.0 | 12.0 | 0.00 | 0.00 | 0.00 | 90 | 1009.9 |
| 20260505070553 | 71 | 182 | 5.0 | 15.0 | 0.00 | 0.00 | 0.00 | 90 | 1010.0 |
| 20260505070055 | 71 | 168 | 6.0 | 15.0 | 0.00 | 0.00 | 0.00 | 90 | 1009.9 |
| 20260505065552 | 71 | 193 | 7.0 | 15.0 | 0.00 | 0.00 | 0.00 | 90 | 1009.9 |
| 20260505065055 | 71 | 203 | 7.0 | 14.0 | 0.00 | 0.00 | 0.00 | 90 | 1009.8 |
| 20260505064602 | 71 | 171 | 8.0 | 13.0 | 0.00 | 0.00 | 0.00 | 90 | 1009.7 |
| 20260505064052 | 71 | 185 | 8.0 | 13.0 | 0.00 | 0.00 | 0.00 | 89 | 1009.9 |
| 20260505063553 | 71 | 180 | 7.0 | 14.0 | 0.00 | 0.00 | 0.00 | 89 | 1009.9 |
| 20260505063055 | 71 | 203 | 7.0 | 14.0 | 0.00 | 0.00 | 0.00 | 89 | 1010.0 |
| 20260505062552 | 71 | 177 | 7.0 | 16.0 | 0.00 | 0.00 | 0.00 | 89 | 1010.1 |
| 20260505062054 | 70 | 194 | 8.0 | 16.0 | 0.00 | 0.00 | 0.00 | 89 | 1010.1 |
| 20260505061553 | 70 | 171 | 7.0 | 15.0 | 0.00 | 0.00 | 0.00 | 89 | 1010.1 |
| 20260505061051 | 70 | 173 | 7.0 | 15.0 | 0.00 | 0.00 | 0.00 | 89 | 1010.1 |
| 20260505060551 | 70 | 186 | 7.0 | 13.0 | 0.00 | 0.00 | 0.00 | 88 | 1010.2 |
| 20260505060104 | 70 | 214 | 5.0 | 11.0 | 0.00 | 0.00 | 0.00 | 88 | 1010.1 |
| 20260505055552 | 70 | 173 | 6.0 | 11.0 | 0.00 | 0.00 | 0.00 | 88 | 1010.0 |
| 20260505055056 | 70 | 175 | 6.0 | 11.0 | 0.00 | 0.00 | 0.00 | 88 | 1010.1 |
| 20260505054604 | 71 | 176 | 5.0 | 14.0 | 0.00 | 0.00 | 0.00 | 88 | 1010.4 |
| 20260505054052 | 71 | 202 | 6.0 | 14.0 | 0.00 | 0.00 | 0.00 | 88 | 1010.5 |
| 20260505053554 | 71 | 199 | 7.0 | 14.0 | 0.00 | 0.00 | 0.00 | 88 | 1010.5 |
| 20260505053112 | 71 | 191 | 6.0 | 13.0 | 0.00 | 0.00 | 0.00 | 87 | 1010.4 |
| 20260505052551 | 71 | 192 | 6.0 | 11.0 | 0.00 | 0.00 | 0.00 | 87 | 1010.6 |
| 20260505052051 | 71 | 185 | 5.0 | 11.0 | 0.00 | 0.00 | 0.00 | 87 | 1010.6 |
| 20260505051555 | 71 | 200 | 5.0 | 11.0 | 0.00 | 0.00 | 0.00 | 87 | 1010.6 |
| 20260505051054 | 71 | 179 | 5.0 | 12.0 | 0.00 | 0.00 | 0.00 | 87 | 1010.7 |
| 20260505050554 | 71 | 182 | 6.0 | 12.0 | 0.00 | 0.00 | 0.00 | 86 | 1010.7 |
| 20260505041614 | 72 | 216 | 6.0 | 13.0 | 0.00 | 0.00 | 0.00 | 84 | 1011.1 |
| 20260505041051 | 72 | 178 | 4.0 | 10.0 | 0.00 | 0.00 | 0.00 | 84 | 1011.1 |
| 20260505040551 | 72 | 182 | 6.0 | 12.0 | 0.00 | 0.00 | 0.00 | 84 | 1011.0 |
| 20260505040057 | 72 | 184 | 6.0 | 12.0 | 0.00 | 0.00 | 0.00 | 84 | 1011.0 |
| 20260505035554 | 72 | 158 | 5.0 | 11.0 | 0.00 | 0.00 | 0.00 | 83 | 1011.0 |
| 20260505035057 | 72 | 195 | 6.0 | 15.0 | 0.00 | 0.00 | 0.00 | 83 | 1011.1 |
| 20260505034601 | 73 | 173 | 7.0 | 15.0 | 0.00 | 0.00 | 0.00 | 83 | 1011.0 |
| 20260505034052 | 73 | 188 | 6.0 | 12.0 | 0.00 | 0.00 | 0.00 | 83 | 1011.1 |
| 20260505033552 | 73 | 185 | 6.0 | 14.0 | 0.00 | 0.00 | 0.00 | 83 | 1011.1 |
| 20260505033102 | 73 | 193 | 7.0 | 14.0 | 0.00 | 0.00 | 0.00 | 82 | 1011.0 |
| 20260505032554 | 73 | 188 | 6.0 | 12.0 | 0.00 | 0.00 | 0.00 | 82 | 1010.9 |
| 20260505032051 | 73 | 159 | 6.0 | 17.0 | 0.00 | 0.00 | 0.00 | 82 | 1011.1 |
| 20260505031607 | 73 | 193 | 6.0 | 17.0 | 0.00 | 0.00 | 0.00 | 82 | 1011.1 |
| 20260505031101 | 73 | 199 | 5.0 | 16.0 | 0.00 | 0.00 | 0.00 | 82 | 1011.1 |
| 20260505030551 | 73 | 175 | 5.0 | 16.0 | 0.00 | 0.00 | 0.00 | 82 | 1011.0 |
| 20260505030052 | 73 | 144 | 6.0 | 14.0 | 0.00 | 0.00 | 0.00 | 82 | 1011.0 |
| 20260505025554 | 73 | 202 | 6.0 | 14.0 | 0.00 | 0.00 | 0.00 | 82 | 1011.0 |
| 20260505025054 | 73 | 183 | 7.0 | 14.0 | 0.00 | 0.00 | 0.00 | 82 | 1010.9 |
| 20260505024555 | 73 | 175 | 5.0 | 14.0 | 0.00 | 0.00 | 0.00 | 82 | 1010.9 |
| 20260505024053 | 73 | 184 | 7.0 | 14.0 | 0.00 | 0.00 | 0.00 | 82 | 1010.8 |
| 20260505023552 | 73 | 159 | 5.0 | 12.0 | 0.00 | 0.00 | 0.00 | 82 | 1010.8 |
| 20260505023102 | 73 | 198 | 6.0 | 12.0 | 0.00 | 0.00 | 0.00 | 81 | 1010.7 |
| 20260505022551 | 73 | 146 | 5.0 | 13.0 | 0.00 | 0.00 | 0.00 | 81 | 1010.7 |
| 20260505022054 | 73 | 179 | 6.0 | 13.0 | 0.00 | 0.00 | 0.00 | 81 | 1010.8 |
| 20260505021557 | 73 | 180 | 6.0 | 12.0 | 0.00 | 0.00 | 0.00 | 81 | 1010.6 |
| 20260505021054 | 73 | 196 | 5.0 | 12.0 | 0.00 | 0.00 | 0.00 | 81 | 1010.7 |
| 20260505020554 | 74 | 171 | 5.0 | 14.0 | 0.00 | 0.00 | 0.00 | 81 | 1010.7 |
| 20260505020055 | 74 | 159 | 6.0 | 17.0 | 0.00 | 0.00 | 0.00 | 80 | 1010.5 |
| 20260505015557 | 74 | 208 | 8.0 | 17.0 | 0.00 | 0.00 | 0.00 | 80 | 1010.6 |
| 20260505015055 | 74 | 198 | 7.0 | 15.0 | 0.00 | 0.00 | 0.00 | 80 | 1010.4 |
| 20260505014556 | 74 | 152 | 6.0 | 17.0 | 0.00 | 0.00 | 0.00 | 79 | 1010.5 |
| 20260505014056 | 74 | 169 | 9.0 | 17.0 | 0.00 | 0.00 | 0.00 | 79 | 1010.5 |
| 20260505013553 | 75 | 166 | 7.0 | 16.0 | 0.00 | 0.00 | 0.00 | 79 | 1010.5 |
| 20260505013059 | 75 | 181 | 5.0 | 20.0 | 0.00 | 0.00 | 0.00 | 78 | 1010.5 |
| 20260505012551 | 75 | 193 | 8.0 | 20.0 | 0.00 | 0.00 | 0.00 | 78 | 1010.3 |
| 20260505012053 | 75 | 162 | 7.0 | 16.0 | 0.00 | 0.00 | 0.00 | 78 | 1010.3 |
| 20260505011556 | 75 | 164 | 8.0 | 18.0 | 0.00 | 0.00 | 0.00 | 77 | 1010.2 |
| 20260505011053 | 76 | 182 | 8.0 | 19.0 | 0.00 | 0.00 | 0.00 | 77 | 1010.1 |
| 20260505010553 | 76 | 190 | 9.0 | 19.0 | 0.00 | 0.00 | 0.00 | 77 | 1010.1 |
| 20260505010056 | 76 | 177 | 8.0 | 18.0 | 0.00 | 0.00 | 0.00 | 76 | 1010.0 |
| 20260505005553 | 76 | 227 | 8.0 | 18.0 | 0.00 | 0.00 | 0.00 | 76 | 1010.0 |
| 20260505005053 | 76 | 190 | 10.0 | 19.0 | 0.00 | 0.00 | 0.00 | 76 | 1010.2 |
| 20260505004555 | 77 | 205 | 10.0 | 19.0 | 0.00 | 0.00 | 0.00 | 75 | 1010.4 |
| 20260505004055 | 77 | 167 | 9.0 | 16.0 | 0.00 | 0.00 | 0.00 | 75 | 1010.4 |
| 20260505003553 | 77 | 173 | 8.0 | 14.0 | 0.00 | 0.00 | 0.00 | 75 | 1010.5 |
| 20260505003056 | 77 | 193 | 6.0 | 16.0 | 0.00 | 0.00 | 0.00 | 74 | 1010.4 |
| 20260505002555 | 77 | 184 | 8.0 | 16.0 | 0.00 | 0.00 | 0.00 | 74 | 1010.5 |
| 20260505002056 | 78 | 188 | 6.0 | 16.0 | 0.00 | 0.00 | 0.00 | 74 | 1010.5 |
| 20260505001557 | 78 | 194 | 7.0 | 15.0 | 0.00 | 0.00 | 0.00 | 73 | 1010.4 |
| 20260505001053 | 78 | 196 | 9.0 | 15.0 | 0.00 | 0.00 | 0.00 | 73 | 1010.3 |
| 20260505000553 | 78 | 200 | 8.0 | 18.0 | 0.00 | 0.00 | 0.00 | 73 | 1010.2 |
| 20260505000107 | 78 | 186 | 8.0 | 18.0 | 0.00 | 0.00 | 0.00 | 73 | 1010.3 |
| 20260504235554 | 78 | 191 | 8.0 | 20.0 | 0.00 | 0.00 | 0.00 | 73 | 1010.3 |
| 20260504235053 | 78 | 200 | 11.0 | 20.0 | 0.00 | 0.00 | 0.00 | 73 | 1010.4 |
| 20260504234617 | 78 | 174 | 7.0 | 18.0 | 0.00 | 0.00 | 0.00 | 73 | 1010.5 |
| 20260504234053 | 78 | 188 | 10.0 | 17.0 | 0.00 | 0.00 | 0.00 | 72 | 1010.5 |
| 20260504233553 | 78 | 186 | 9.0 | 18.0 | 0.00 | 0.00 | 0.00 | 73 | 1010.6 |
| 20260504233057 | 78 | 197 | 8.0 | 20.0 | 0.00 | 0.00 | 0.00 | 72 | 1010.5 |
| 20260504232553 | 79 | 202 | 8.0 | 20.0 | 0.00 | 0.00 | 0.00 | 72 | 1010.7 |
| 20260504232054 | 79 | 234 | 9.0 | 17.0 | 0.00 | 0.00 | 0.00 | 72 | 1010.7 |
| 20260504231601 | 79 | 182 | 8.0 | 17.0 | 0.00 | 0.00 | 0.00 | 72 | 1010.8 |
| 20260504231054 | 79 | 163 | 8.0 | 16.0 | 0.00 | 0.00 | 0.00 | 71 | 1010.8 |
| 20260504230558 | 79 | 184 | 8.0 | 16.0 | 0.00 | 0.00 | 0.00 | 70 | 1010.8 |
| 20260504230059 | 80 | 206 | 8.0 | 15.0 | 0.00 | 0.00 | 0.00 | 71 | 1010.9 |
| 20260504225555 | 80 | 199 | 7.0 | 15.0 | 0.00 | 0.00 | 0.00 | 71 | 1011.1 |
| 20260504225054 | 80 | 171 | 7.0 | 16.0 | 0.00 | 0.00 | 0.00 | 70 | 1011.1 |
| 20260504224555 | 80 | 198 | 10.0 | 16.0 | 0.00 | 0.00 | 0.00 | 69 | 1011.1 |
| 20260504224058 | 81 | 200 | 9.0 | 15.0 | 0.00 | 0.00 | 0.00 | 69 | 1011.1 |
| 20260504223555 | 81 | 194 | 7.0 | 18.0 | 0.00 | 0.00 | 0.00 | 69 | 1011.0 |
| 20260504223054 | 81 | 180 | 9.0 | 18.0 | 0.00 | 0.00 | 0.00 | 68 | 1011.0 |
| 20260504222557 | 82 | 213 | 7.0 | 16.0 | 0.00 | 0.00 | 0.00 | 68 | 1011.0 |
| 20260504222054 | 81 | 197 | 9.0 | 16.0 | 0.00 | 0.00 | 0.00 | 68 | 1011.0 |
| 20260504221600 | 81 | 211 | 8.0 | 13.0 | 0.00 | 0.00 | 0.00 | 67 | 1011.0 |
| 20260504221056 | 81 | 208 | 7.0 | 13.0 | 0.00 | 0.00 | 0.00 | 68 | 1011.0 |
| 20260504220555 | 81 | 190 | 6.0 | 19.0 | 0.00 | 0.00 | 0.00 | 68 | 1011.0 |
| 20260504220058 | 81 | 165 | 6.0 | 19.0 | 0.00 | 0.00 | 0.00 | 67 | 1011.0 |
| 20260504215555 | 82 | 130 | 9.0 | 18.0 | 0.00 | 0.00 | 0.00 | 67 | 1011.0 |
| 20260504215053 | 82 | 204 | 7.0 | 18.0 | 0.00 | 0.00 | 0.00 | 67 | 1011.1 |
| 20260504214558 | 82 | 165 | 8.0 | 17.0 | 0.00 | 0.00 | 0.00 | 67 | 1011.1 |
| 20260504214055 | 82 | 201 | 10.0 | 16.0 | 0.00 | 0.00 | 0.00 | 66 | 1011.1 |
| 20260504213554 | 82 | 201 | 9.0 | 18.0 | 0.00 | 0.00 | 0.00 | 66 | 1011.3 |
| 20260504213057 | 81 | 157 | 7.0 | 18.0 | 0.00 | 0.00 | 0.00 | 69 | 1011.3 |
| 20260504212555 | 81 | 169 | 7.0 | 18.0 | 0.00 | 0.00 | 0.00 | 68 | 1011.4 |
| 20260504212055 | 81 | 211 | 8.0 | 18.0 | 0.00 | 0.00 | 0.00 | 66 | 1011.5 |
| 20260504211557 | 82 | 211 | 8.0 | 13.0 | 0.00 | 0.00 | 0.00 | 66 | 1011.7 |
| 20260504211054 | 82 | 182 | 7.0 | 15.0 | 0.00 | 0.00 | 0.00 | 66 | 1011.8 |
| 20260504210554 | 82 | 159 | 10.0 | 15.0 | 0.00 | 0.00 | 0.00 | 66 | 1011.9 |
| 20260504210108 | 82 | 206 | 8.0 | 14.0 | 0.00 | 0.00 | 0.00 | 65 | 1011.9 |
| 20260504205554 | 82 | 149 | 8.0 | 14.0 | 0.00 | 0.00 | 0.00 | 65 | 1012.0 |
| 20260504205052 | 82 | 217 | 7.0 | 13.0 | 0.00 | 0.00 | 0.00 | 65 | 1012.1 |
| 20260504204603 | 82 | 213 | 7.0 | 19.0 | 0.00 | 0.00 | 0.00 | 64 | 1012.1 |
| 20260504204055 | 82 | 189 | 7.0 | 19.0 | 0.00 | 0.00 | 0.00 | 63 | 1012.1 |
| 20260504203554 | 83 | 221 | 10.0 | 17.0 | 0.00 | 0.00 | 0.00 | 62 | 1012.2 |
| 20260504203054 | 83 | 211 | 8.0 | 15.0 | 0.00 | 0.00 | 0.00 | 62 | 1012.2 |
| 20260504202554 | 83 | 226 | 9.0 | 15.0 | 0.00 | 0.00 | 0.00 | 60 | 1012.3 |
| 20260504202057 | 83 | 190 | 6.0 | 12.0 | 0.00 | 0.00 | 0.00 | 61 | 1012.4 |
| 20260504201601 | 83 | 167 | 7.0 | 11.0 | 0.00 | 0.00 | 0.00 | 61 | 1012.3 |
| 20260504201052 | 83 | 180 | 5.0 | 11.0 | 0.00 | 0.00 | 0.00 | 62 | 1012.4 |
| 20260504200552 | 82 | 126 | 5.0 | 11.0 | 0.00 | 0.00 | 0.00 | 62 | 1012.4 |
| 20260504200100 | 82 | 140 | 6.0 | 11.0 | 0.00 | 0.00 | 0.00 | 63 | 1012.5 |
| 20260504195552 | 82 | 209 | 7.0 | 11.0 | 0.00 | 0.00 | 0.00 | 62 | 1012.7 |
| 20260504195053 | 82 | 169 | 4.0 | 13.0 | 0.00 | 0.00 | 0.00 | 63 | 1012.8 |
| 20260504194608 | 82 | 173 | 6.0 | 13.0 | 0.00 | 0.00 | 0.00 | 63 | 1013.0 |
| 20260504194053 | 82 | 182 | 7.0 | 13.0 | 0.00 | 0.00 | 0.00 | 63 | 1013.1 |
| 20260504193553 | 82 | 182 | 8.0 | 12.0 | 0.00 | 0.00 | 0.00 | 62 | 1013.1 |
| 20260504193053 | 82 | 194 | 8.0 | 12.0 | 0.00 | 0.00 | 0.00 | 62 | 1013.0 |
| 20260504192553 | 82 | 203 | 6.0 | 13.0 | 0.00 | 0.00 | 0.00 | 62 | 1013.1 |
| 20260504192053 | 82 | 196 | 7.0 | 13.0 | 0.00 | 0.00 | 0.00 | 63 | 1013.2 |
| 20260504191554 | 81 | 192 | 8.0 | 12.0 | 0.00 | 0.00 | 0.00 | 63 | 1013.4 |
| 20260504191053 | 81 | 183 | 5.0 | 12.0 | 0.00 | 0.00 | 0.00 | 63 | 1013.5 |
| 20260504190553 | 81 | 196 | 6.0 | 12.0 | 0.00 | 0.00 | 0.00 | 62 | 1013.5 |
| 20260504190117 | 81 | 202 | 4.0 | 13.0 | 0.00 | 0.00 | 0.00 | 63 | 1013.6 |
| 20260504185552 | 81 | 177 | 7.0 | 13.0 | 0.00 | 0.00 | 0.00 | 64 | 1013.8 |
| 20260504185050 | 81 | 171 | 6.0 | 12.0 | 0.00 | 0.00 | 0.00 | 64 | 1013.8 |
| 20260504184558 | 81 | 209 | 5.0 | 12.0 | 0.00 | 0.00 | 0.00 | 65 | 1013.8 |
| 20260504184056 | 80 | 141 | 3.0 | 13.0 | 0.00 | 0.00 | 0.00 | 65 | 1013.8 |
| 20260504183553 | 81 | 178 | 6.0 | 14.0 | 0.00 | 0.00 | 0.00 | 64 | 1014.0 |
| 20260504183053 | 81 | 189 | 7.0 | 14.0 | 0.00 | 0.00 | 0.00 | 63 | 1013.8 |
| 20260504182553 | 80 | 208 | 5.0 | 12.0 | 0.00 | 0.00 | 0.00 | 66 | 1014.1 |
| 20260504182053 | 80 | 218 | 5.0 | 13.0 | 0.00 | 0.00 | 0.00 | 66 | 1014.1 |
| 20260504181558 | 80 | 127 | 6.0 | 13.0 | 0.00 | 0.00 | 0.00 | 66 | 1014.0 |
| 20260504181053 | 79 | 171 | 6.0 | 13.0 | 0.00 | 0.00 | 0.00 | 68 | 1014.3 |
| 20260504180552 | 79 | 204 | 5.0 | 13.0 | 0.00 | 0.00 | 0.00 | 67 | 1014.5 |
| 20260504180144 | 79 | 201 | 6.0 | 16.0 | 0.00 | 0.00 | 0.00 | 67 | 1014.5 |
| 20260504175553 | 79 | 205 | 7.0 | 16.0 | 0.00 | 0.00 | 0.00 | 67 | 1014.6 |
| 20260504175059 | 79 | 197 | 8.0 | 15.0 | 0.00 | 0.00 | 0.00 | 67 | 1014.6 |
| 20260504174553 | 79 | 202 | 7.0 | 16.0 | 0.00 | 0.00 | 0.00 | 65 | 1014.5 |
| 20260504174054 | 79 | 175 | 9.0 | 16.0 | 0.00 | 0.00 | 0.00 | 67 | 1014.5 |
| 20260504173556 | 79 | 211 | 10.0 | 16.0 | 0.00 | 0.00 | 0.00 | 66 | 1014.6 |
| 20260504173100 | 79 | 176 | 6.0 | 16.0 | 0.00 | 0.00 | 0.00 | 66 | 1014.9 |
| 20260504172552 | 79 | 223 | 9.0 | 15.0 | 0.00 | 0.00 | 0.00 | 67 | 1014.9 |
| 20260504172051 | 78 | 215 | 7.0 | 12.0 | 0.00 | 0.00 | 0.00 | 68 | 1015.0 |
| 20260504171553 | 78 | 197 | 6.0 | 13.0 | 0.00 | 0.00 | 0.00 | 66 | 1014.9 |
| 20260504171054 | 79 | 197 | 8.0 | 14.0 | 0.00 | 0.00 | 0.00 | 65 | 1014.9 |
| 20260504170553 | 79 | 211 | 9.0 | 16.0 | 0.00 | 0.00 | 0.00 | 66 | 1015.0 |
| 20260504151053 | 74 | 185 | 10.0 | 19.0 | 0.00 | 0.00 | 0.00 | 71 | 1015.9 |
| 20260504150552 | 74 | 214 | 10.0 | 18.0 | 0.00 | 0.00 | 0.00 | 72 | 1015.7 |
| 20260504141053 | 70 | 199 | 6.0 | 13.0 | 0.00 | 0.00 | 0.00 | 78 | 1015.9 |
| 20260504140552 | 70 | 129 | 5.0 | 10.0 | 0.00 | 0.00 | 0.00 | 78 | 1015.9 |
| 20260504140113 | 69 | 192 | 4.0 | 9.0 | 0.00 | 0.00 | 0.00 | 79 | 1015.9 |
| 20260504130553 | 64 | 187 | 2.0 | 5.0 | 0.00 | 0.00 | 0.00 | 84 | 1015.9 |
| 20260504130110 | 63 | 180 | 3.0 | 6.0 | 0.00 | 0.00 | 0.00 | 85 | 1015.8 |
| 20260504120114 | 59 | 170 | 0.0 | 0.0 | 0.00 | 0.00 | 0.00 | 84 | 1015.3 |
| 20260504110557 | 60 | 0 | 0.0 | 0.0 | 0.00 | 0.00 | 0.00 | 81 | 1015.9 |
| 20260504100552 | 61 | 179 | 3.0 | 7.0 | 0.00 | 0.00 | 0.00 | 81 | 1015.5 |